[[{"header":{"parameterUnit":"m.s-1","parameterCategory":1,"la1":30.2991,"la2":30.254,"lo1":-89.0895,"lo2":-89.0444,"dy":0.0017,"dx":0.0017,"nx":28,"ny":28,"refTime":"2023-10-20T09:00:00:Z","depth":0,"parameterNumber":2,"parameterNumberName":"U-component_of_WINDS"},"data":[0,0,0,0,0,0,0,0,0,0,0,0,0,0,0,0,0,0,0,0,0,0,0,0,0,0,0,0,0,0,0,0,0,0,0,0,0,0,0,0,0,0,0,0,0,0,0,0,0,0,0,0,0,0,0,0,0,0,0.087,0.087,0,0.091,0.0911,0.0911,0.0916,0.0916,0.0915,0.0915,0.0958,0.096,0.0961,0,0,0,0,0,0,0,0,0,0,0,0,0,0.0798,0.08,0.087,0.087,0.0871,0.091,0.0911,0.0911,0.0916,0.0916,0.0915,0.0915,0.0958,0.0959,0.0961,0,0,0,0,0,0,0,0,0,0,0,0,0,0.0833,0.08,0.087,0.0878,0.0879,0.091,0.0911,0.0911,0.0916,0.0916,0.0915,0.0914,0.0957,0.0959,0.0961,0.0988,0,0,0.0968,0.0969,0,0,0,0,0,0,0,0,0.0831,0.0836,0.0876,0.0877,0.0879,0.0907,0.0901,0.0937,0.0916,0.0902,0.0915,0.0914,0.0942,0.0945,0.0954,0.099,0.0992,0.0969,0.097,0.0971,0.0972,0,0,0,0,0,0,0,0.0829,0.0834,0.0886,0.0877,0.0878,0.088,0.0884,0.0908,0.0925,0.0903,0.0904,0.0908,0.0942,0.0952,0.0955,0.0992,0.0969,0.0971,0.0972,0.0973,0.1052,0.1053,0,0,0,0,0,0,0.0825,0.0832,0.0884,0.0887,0.0853,0.0882,0.0887,0.0899,0.0925,0.0928,0.0909,0.0908,0.0948,0.0953,0.0957,0.099,0.0971,0.0973,0.0974,0.1052,0.1053,0.1053,0,0,0,0,0,0,0.0823,0.0829,0.0883,0.086,0.0867,0.0884,0.0897,0.09,0.091,0.0929,0.0932,0.0916,0.0948,0.0954,0.098,0.0992,0.0974,0.0976,0.1051,0.1052,0.1053,0.1056,0,0,0,0,0,0,0.0821,0.0829,0.0838,0.086,0.0868,0.0905,0.0898,0.0901,0.0913,0.0913,0.0936,0.0939,0.0948,0.0977,0.0982,0.0994,0.0978,0.105,0.1051,0.1053,0.1055,0.1057,0.1059,0,0,0,0,0,0.0818,0.0838,0.0839,0.0845,0.088,0.0905,0.091,0.0919,0.0914,0.0924,0.0937,0.0938,0.0989,0.0979,0.0986,0.0999,0.1049,0.1051,0.1052,0.1054,0.1057,0.1059,0,0,0,0,0,0,0.0817,0.0841,0.0842,0.0869,0.0885,0.0906,0.0919,0.0922,0.094,0.0939,0.0951,0.0956,0.0982,0.0993,0.0981,0.1026,0.1019,0.1022,0.1018,0.102,0.1022,0.1019,0.098,0,0,0,0,0,0.082,0.0838,0.0858,0.0879,0.0888,0.0902,0.0913,0.0919,0.0937,0.0944,0.0958,0.0976,0.0996,0.1009,0.1028,0.1057,0.1062,0.1069,0.1071,0.1072,0.1075,0.1092,0.1095,0.1059,0.1059,0.1059,0,0,0.0826,0.0841,0.0852,0.088,0.0893,0.0912,0.0908,0.0928,0.0942,0.0947,0.0973,0.0984,0.1005,0.1032,0.1045,0.1042,0.1086,0.1074,0.1075,0.1077,0.1094,0.1097,0.11,0.106,0.106,0.106,0,0,0.0847,0.086,0.088,0.0893,0.0913,0.0923,0.0928,0.0949,0.0956,0.0982,0.0986,0.1004,0.1038,0.1053,0.1065,0.1092,0.1094,0.1098,0.1108,0.1125,0.1127,0.113,0.1141,0.1144,0.11,0.11,0.11,0,0.0852,0.0881,0.089,0.091,0.0923,0.0927,0.0948,0.0961,0.0986,0.0995,0.0991,0.1034,0.1048,0.108,0.1087,0.1096,0.1103,0.1095,0.1126,0.1129,0.1131,0.1142,0.1145,0.1101,0.1101,0.1101,0.1101,0,0.0887,0.0906,0.092,0.0944,0.0958,0.0979,0.0992,0.1005,0.101,0.102,0.1047,0.1064,0.1087,0.1095,0.11,0.1128,0.1125,0.1124,0.1117,0.1135,0.1145,0.1149,0.1101,0.1101,0.1101,0.1101,0,0,0.0908,0.0937,0.0942,0.0954,0.0976,0.0992,0.1013,0.1035,0.1047,0.1065,0.1083,0.1112,0.1111,0.1124,0.1131,0.1145,0.1167,0.1142,0.1143,0.1147,0.12,0.1201,0.1205,0.1168,0.1169,0.117,0.1198,0,0.0932,0.0969,0.0978,0.101,0.1028,0.1033,0.1052,0.1068,0.1079,0.1097,0.1108,0.1129,0.1125,0.1134,0.1148,0.1161,0.1178,0.1159,0.1187,0.1187,0.1182,0.121,0.1212,0.1238,0.1202,0.1203,0.1203,0,0.0964,0.0983,0.1016,0.1037,0.1046,0.1062,0.1084,0.1101,0.112,0.1126,0.1142,0.1147,0.117,0.1162,0.1194,0.1182,0.1193,0.1202,0.1203,0.1206,0.1197,0.1215,0.1246,0.125,0.1209,0.1208,0.1208,0,0.0977,0.101,0.1035,0.1044,0.1069,0.1081,0.1092,0.1111,0.1124,0.1143,0.1152,0.1174,0.1186,0.1203,0.1215,0.1207,0.1246,0.1239,0.1253,0.1253,0.1262,0.1261,0.1295,0.1268,0.1268,0.1268,0.1268,0,0.1003,0.1024,0.1041,0.1056,0.108,0.109,0.1114,0.1125,0.1142,0.116,0.1165,0.1183,0.1197,0.1216,0.1225,0.1251,0.1256,0.1263,0.1265,0.1263,0.1262,0.1271,0.127,0.1269,0.1269,0.1269,0.1269,0,0.1021,0.1034,0.1061,0.1083,0.1089,0.1105,0.1124,0.1139,0.115,0.1173,0.1179,0.1196,0.1219,0.1232,0.1261,0.1268,0.1297,0.1298,0.129,0.1291,0.1305,0.1304,0.1347,0.1354,0.1322,0.1322,0.1322,0,0.1037,0.1053,0.1077,0.1089,0.11,0.112,0.1134,0.1145,0.1159,0.1183,0.1195,0.1219,0.1238,0.1275,0.129,0.1313,0.1315,0.1329,0.1318,0.1316,0.1316,0.1315,0.1317,0.133,0.1331,0.1331,0.1331,0,0.1065,0.107,0.1089,0.111,0.1126,0.1144,0.1161,0.1171,0.1186,0.1201,0.1225,0.124,0.1269,0.1293,0.1317,0.1329,0.1333,0.1334,0.1339,0.1337,0.1332,0.1335,0.1296,0.1333,0.1333,0.1333,0.1333,0.1333,0.1083,0.1097,0.1116,0.1138,0.1152,0.1168,0.1184,0.1197,0.1216,0.1241,0.1247,0.1272,0.1292,0.1324,0.1337,0.1358,0.1355,0.1362,0.1364,0.1365,0.1366,0.1328,0.1362,0.1362,0.1362,0.1362,0.1362,0,0.1111,0.1123,0.1143,0.1167,0.1184,0.1185,0.1205,0.1219,0.1241,0.1259,0.1278,0.1305,0.1328,0.1346,0.137,0.1383,0.1385,0.1389,0.1388,0.1391,0.1366,0.136,0.1386,0.1386,0.1386,0.1386,0.1386,0.1386,0.1127,0.1152,0.116,0.1193,0.1206,0.123,0.1241,0.1257,0.1271,0.1301,0.132,0.1332,0.135,0.1375,0.1397,0.1401,0.141,0.1413,0.1418,0.1395,0.1393,0.139,0.1384,0.1415,0.1415,0.1441,0.1442,0.1442]},{"header":{"parameterUnit":"m.s-1","parameterCategory":1,"la1":30.2991,"la2":30.254,"lo1":-89.0895,"lo2":-89.0444,"dy":0.0017,"dx":0.0017,"nx":28,"ny":28,"refTime":"2023-10-20T09:00:00:Z","depth":0,"parameterNumber":3,"parameterNumberName":"V-component_of_WINDS"},"data":[0,0,0,0,0,0,0,0,0,0,0,0,0,0,0,0,0,0,0,0,0,0,0,0,0,0,0,0,0,0,0,0,0,0,0,0,0,0,0,0,0,0,0,0,0,0,0,0,0,0,0,0,0,0,0,0,0,0,2.1981,2.1981,0,2.1946,2.1946,2.1945,2.1893,2.1892,2.1891,2.189,2.1853,2.1853,2.1853,0,0,0,0,0,0,0,0,0,0,0,0,0,2.2003,2.2003,2.1981,2.1981,2.198,2.1946,2.1946,2.1945,2.1893,2.1892,2.1891,2.189,2.1853,2.1853,2.1853,0,0,0,0,0,0,0,0,0,0,0,0,0,2.1984,2.2003,2.1981,2.195,2.1947,2.1946,2.1946,2.1945,2.1893,2.1892,2.189,2.1889,2.1854,2.1853,2.1853,2.188,0,0,2.1853,2.1853,0,0,0,0,0,0,0,0,2.1985,2.1983,2.1955,2.1952,2.1949,2.1922,2.194,2.1923,2.1894,2.1914,2.189,2.1888,2.1877,2.1875,2.1872,2.1878,2.1876,2.1853,2.1853,2.1852,2.1852,0,0,0,0,0,0,0,2.1986,2.1984,2.1967,2.1955,2.1951,2.1938,2.1934,2.1937,2.1904,2.1912,2.1908,2.1904,2.1875,2.1872,2.187,2.1876,2.1853,2.1852,2.1852,2.1852,2.1904,2.1905,0,0,0,0,0,0,2.1992,2.1986,2.1968,2.1966,2.1964,2.1939,2.1934,2.1932,2.1904,2.1898,2.1906,2.1902,2.1873,2.1871,2.1869,2.1899,2.1852,2.1852,2.1852,2.1902,2.1904,2.1906,0,0,0,0,0,0,2.1993,2.1991,2.197,2.1975,2.1971,2.194,2.1938,2.1932,2.1929,2.1899,2.1893,2.1908,2.1872,2.1869,2.1878,2.1897,2.1852,2.1852,2.19,2.1903,2.1905,2.1959,0,0,0,0,0,0,2.1994,2.1992,2.2001,2.1975,2.1971,2.1979,2.194,2.1933,2.1929,2.1924,2.19,2.1894,2.187,2.1878,2.1878,2.1896,2.1852,2.1899,2.1901,2.1904,2.1955,2.1962,2.1969,0,0,0,0,0,2.1995,2.2017,2.2002,2.2,2.1982,2.198,2.1978,2.195,2.193,2.194,2.1921,2.1895,2.1895,2.188,2.1878,2.1897,2.1897,2.1901,2.1904,2.1952,2.1961,2.1968,0,0,0,0,0,0,2.2046,2.2013,2.1996,2.2011,2.1999,2.1972,2.1983,2.196,2.1953,2.1949,2.1915,2.191,2.1923,2.1911,2.1894,2.1922,2.1892,2.1895,2.1929,2.1937,2.1944,2.1947,2.1852,0,0,0,0,0,2.2059,2.206,2.2032,2.2048,2.2043,2.2014,2.2012,2.1992,2.1978,2.1972,2.1954,2.1941,2.1939,2.1937,2.1933,2.1953,2.1947,2.1965,2.1972,2.1978,2.1981,2.1992,2.2,2.1916,2.1916,2.1916,0,0,2.2086,2.2068,2.2071,2.2058,2.2046,2.2048,2.201,2.2013,2.2015,2.1973,2.198,2.1966,2.195,2.1965,2.197,2.1955,2.2003,2.1982,2.1987,2.1987,2.1996,2.2004,2.2011,2.1919,2.1918,2.1918,0,0,2.2136,2.2123,2.2135,2.2124,2.2107,2.2088,2.2092,2.2068,2.2057,2.2064,2.2033,2.2034,2.203,2.202,2.2014,2.2063,2.2039,2.2062,2.2098,2.2109,2.2115,2.2121,2.2139,2.2145,2.2065,2.2065,2.2066,0,2.2172,2.2173,2.2144,2.215,2.2145,2.2108,2.2121,2.2112,2.2094,2.2092,2.2075,2.207,2.2056,2.2069,2.2081,2.2077,2.208,2.2064,2.2117,2.2122,2.2127,2.2144,2.215,2.2068,2.2068,2.2068,2.2067,0,2.2218,2.222,2.2232,2.2217,2.2214,2.2223,2.2195,2.2196,2.2176,2.2159,2.2168,2.215,2.2142,2.2144,2.2124,2.2154,2.2145,2.2123,2.2093,2.2138,2.2153,2.216,2.2073,2.2072,2.2071,2.207,0,0,2.2299,2.2268,2.2273,2.2266,2.2245,2.2246,2.2254,2.2247,2.2248,2.2238,2.2244,2.2242,2.2222,2.2216,2.2195,2.2205,2.2245,2.2182,2.2181,2.2194,2.2278,2.2295,2.2302,2.223,2.2231,2.2231,2.2279,0,2.2345,2.2357,2.2331,2.2349,2.2351,2.2317,2.2324,2.2312,2.2297,2.2297,2.2279,2.2279,2.2252,2.2248,2.2256,2.2239,2.2262,2.2235,2.2235,2.2236,2.2241,2.231,2.2328,2.2373,2.2285,2.2286,2.2287,0,2.24,2.2393,2.2412,2.2391,2.2391,2.2398,2.2389,2.2389,2.2376,2.2364,2.2358,2.2335,2.2342,2.2313,2.2322,2.2305,2.2304,2.2295,2.2296,2.2295,2.2264,2.2311,2.2387,2.2395,2.2295,2.2295,2.2294,0,2.2457,2.2453,2.2463,2.2458,2.2434,2.244,2.2431,2.2416,2.2413,2.2406,2.2405,2.2399,2.2395,2.2392,2.2367,2.2349,2.238,2.2349,2.2371,2.2372,2.2379,2.2379,2.2456,2.2378,2.2378,2.2378,2.2378,0,2.2511,2.2524,2.2489,2.2496,2.2509,2.248,2.2495,2.2482,2.2469,2.2473,2.2443,2.2447,2.2415,2.2416,2.2397,2.2408,2.2407,2.2398,2.2393,2.2401,2.2402,2.2399,2.2396,2.238,2.2379,2.2379,2.2379,0,2.2578,2.2554,2.2564,2.2541,2.2536,2.2547,2.2527,2.2533,2.2516,2.2522,2.2521,2.2495,2.2495,2.247,2.2465,2.2452,2.2472,2.2461,2.2477,2.2473,2.2497,2.2495,2.2575,2.2585,2.25,2.2501,2.2502,0,2.2614,2.2623,2.2601,2.2602,2.2594,2.2595,2.2593,2.2565,2.2564,2.255,2.2558,2.2555,2.2552,2.2553,2.2534,2.253,2.2519,2.2547,2.2518,2.2526,2.252,2.252,2.2521,2.2553,2.2554,2.2555,2.2556,0,2.268,2.2669,2.2667,2.2662,2.266,2.2654,2.2646,2.2649,2.2618,2.2619,2.2619,2.2616,2.2611,2.2609,2.2602,2.2592,2.257,2.2565,2.257,2.2579,2.2588,2.2584,2.2494,2.2563,2.2563,2.2562,2.2562,2.2561,2.2733,2.274,2.2726,2.2725,2.2717,2.2711,2.2715,2.27,2.2699,2.2693,2.2677,2.268,2.2667,2.2655,2.2648,2.265,2.2635,2.2642,2.2644,2.2646,2.2651,2.2588,2.2648,2.2648,2.2648,2.2647,2.2647,0,2.2799,2.2788,2.2788,2.2779,2.2778,2.2757,2.2748,2.2749,2.2752,2.2742,2.274,2.2741,2.2739,2.272,2.2717,2.2722,2.2712,2.2722,2.2722,2.272,2.2664,2.266,2.2731,2.2731,2.2731,2.2731,2.2731,2.2731,2.2833,2.2844,2.2831,2.2838,2.2828,2.283,2.2827,2.2822,2.2814,2.2816,2.2815,2.2803,2.279,2.2785,2.2783,2.2778,2.2778,2.2793,2.2784,2.2732,2.2724,2.2716,2.2712,2.2793,2.2793,2.284,2.284,2.284]}]]